Buckhannon, WV

4:28 PM EDT on June 25, 2017 (GMT -0400)
Buckhannon

Weather History for KW22 - January, 2014

Change the Weather History Date:

Saturday, January 18, 2014

  Actual Average (KCKB) Record (KCKB)
Temperature  
Mean Temperature 16 °F -  
Max Temperature 21 °F 37 °F 69 °F (1932)
Min Temperature 12 °F 19 °F -16 °F (1957)
Degree Days  
Heating Degree Days 48    
Moisture  
Dew Point 12 °F    
Average Humidity 80    
Maximum Humidity 100    
Minimum Humidity 68    
Precipitation  
Precipitation 0.81 in - - ()
Sea Level Pressure  
Sea Level Pressure 29.93 in    
Wind  
Wind Speed 8 mph (WSW)    
Max Wind Speed 14 mph    
Max Gust Speed 21 mph    
Visibility 7 miles    
Events Snow    
Averages and records for this station are not official NWS values.
T = Trace of Precipitation, MM = Missing Value Source: NWS Daily Summary

Daily Weather History Graph

Daily Weather History Graph

Search for Another Location

Airport or City:

Trip Planner

Search our weather history database for the weather conditions in past years. The results will help you decide how hot, cold, wet, or windy it might be!

Date:

Astronomy

Jan. 18, 2014 Rise Set
Actual Time 7:37 AM EST 5:26 PM EST
Civil Twilight 7:08 AM EST 5:55 PM EST
Nautical Twilight 6:35 AM EST 6:28 PM EST
Astronomical Twilight 6:03 AM EST 6:59 PM EST
Moon 8:05 PM EST (1/18) 8:37 AM EST (1/18)
Length of Visible Light 10h 47m
Length of Day
9h 49m
Waning Gibbous, 94% of the Moon is Illuminated
Jan 18
Waning Gibbous
Jan 24
Last Quarter
Jan 30
New
Feb 6
First Quarter
Feb 14
Full

Hourly Weather History & Observations

Time (EST) Temp. Windchill Dew Point Humidity Pressure Visibility Wind Dir Wind Speed Gust Speed Precip Events Conditions
12:15 AM 21.2 °F 10.9 °F 17.6 °F 86% 29.94 in 5.0 mi West 9.2 mph - 0.01 in Snow Light Snow
12:35 AM 21.2 °F 9.5 °F 17.6 °F 86% 29.93 in 3.0 mi West 11.5 mph - 0.11 in Snow Light Snow
12:55 AM 19.4 °F 9.5 °F 17.6 °F 93% 29.93 in 7.0 mi West 8.1 mph - 0.11 in Snow Light Snow
1:15 AM 19.4 °F 6.6 °F 17.6 °F 93% 29.93 in 2.5 mi WNW 12.7 mph - 0.05 in Snow Light Snow
1:35 AM 19.4 °F 6.0 °F 14.0 °F 80% 29.94 in 7.0 mi West 13.8 mph 20.7 mph 0.11 in   Overcast
1:55 AM 17.6 °F 5.7 °F 10.4 °F 73% 29.94 in 10.0 mi West 10.4 mph 18.4 mph 0.11 in   Mostly Cloudy
2:15 AM 17.6 °F 4.3 °F 10.4 °F 73% 29.94 in 10.0 mi West 12.7 mph 16.1 mph N/A   Overcast
2:35 AM 17.6 °F 5.0 °F 12.2 °F 79% 29.94 in 10.0 mi West 11.5 mph - N/A   Mostly Cloudy
2:55 AM 17.6 °F 6.4 °F 12.2 °F 79% 29.94 in 9.0 mi West 9.2 mph - N/A Snow Light Snow
3:15 AM 17.6 °F 7.3 °F 12.2 °F 79% 29.94 in 10.0 mi West 8.1 mph - N/A   Mostly Cloudy
3:35 AM 15.8 °F 5.1 °F 10.4 °F 79% 29.93 in 10.0 mi West 8.1 mph 16.1 mph N/A   Scattered Clouds
3:55 AM 15.8 °F 6.1 °F 12.2 °F 86% 29.93 in 6.0 mi NW 6.9 mph - 0.01 in Snow Light Snow
4:15 AM 15.8 °F 6.1 °F 10.4 °F 79% 29.93 in 10.0 mi WNW 6.9 mph - N/A   Mostly Cloudy
4:35 AM 14.0 °F 2.0 °F 8.6 °F 79% 29.93 in 10.0 mi West 9.2 mph - N/A   Overcast
4:55 AM 14.0 °F 2.9 °F 8.6 °F 79% 29.93 in 10.0 mi West 8.1 mph - N/A   Overcast
5:15 AM 14.0 °F 5.1 °F 8.6 °F 79% 29.94 in 10.0 mi West 5.8 mph - N/A   Overcast
5:35 AM 14.0 °F 2.0 °F 8.6 °F 79% 29.94 in 10.0 mi WNW 9.2 mph - N/A Snow Light Snow
5:55 AM 14.0 °F 2.0 °F 8.6 °F 79% 29.95 in 10.0 mi West 9.2 mph - N/A Snow Light Snow
6:15 AM 14.0 °F 2.0 °F 8.6 °F 79% 29.95 in 8.0 mi West 9.2 mph - N/A Snow Light Snow
6:35 AM 14.0 °F 6.5 °F 8.6 °F 79% 29.96 in 6.0 mi WNW 4.6 mph - 0.01 in Snow Light Snow
6:55 AM 14.0 °F 5.1 °F 8.6 °F 79% 29.96 in 6.0 mi WNW 5.8 mph - 0.02 in Snow Light Snow
7:15 AM 12.2 °F 2.9 °F 8.6 °F 85% 29.96 in 5.0 mi WNW 5.8 mph - N/A Snow Light Snow
7:35 AM 12.2 °F - 8.6 °F 85% 29.96 in 5.0 mi Calm Calm - 0.01 in Snow Light Snow
7:55 AM 12.2 °F 4.3 °F 8.6 °F 85% 29.97 in 2.5 mi WNW 4.6 mph - 0.03 in Snow Light Snow
8:15 AM 14.0 °F 5.1 °F 10.4 °F 86% 29.97 in 1.8 mi West 5.8 mph - 0.02 in Snow Light Snow
8:35 AM 14.0 °F 5.1 °F 10.4 °F 86% 29.97 in 2.5 mi West 5.8 mph - 0.05 in Snow Light Snow
8:55 AM 14.0 °F 3.9 °F 10.4 °F 86% 29.98 in 7.0 mi WSW 6.9 mph - 0.05 in Snow Light Snow
9:15 AM 14.0 °F 2.9 °F 8.6 °F 79% 29.99 in 5.0 mi West 8.1 mph - N/A Snow Light Snow
9:35 AM 14.0 °F 2.9 °F 10.4 °F 86% 30.00 in 6.0 mi West 8.1 mph - N/A Snow Light Snow
9:55 AM 14.0 °F 2.0 °F 8.6 °F 79% 30.00 in 4.0 mi West 9.2 mph - 0.01 in Snow Light Snow
10:15 AM 14.0 °F 5.1 °F 8.6 °F 79% 30.00 in 3.0 mi West 5.8 mph - 0.01 in Snow Light Snow
10:35 AM 14.0 °F 2.9 °F 8.6 °F 79% 30.00 in 3.0 mi West 8.1 mph - 0.03 in Snow Light Snow
10:55 AM 14.0 °F 3.9 °F 10.4 °F 86% 29.99 in 4.0 mi West 6.9 mph - 0.04 in Snow Light Snow
11:15 AM 15.8 °F 4.2 °F 8.6 °F 73% 29.99 in 6.0 mi WSW 9.2 mph - N/A Snow Light Snow
11:35 AM 15.8 °F 5.1 °F 10.4 °F 79% 29.99 in 6.0 mi West 8.1 mph - N/A Snow Light Snow
11:55 AM 15.8 °F 4.2 °F 10.4 °F 79% 29.99 in 7.0 mi WSW 9.2 mph - 0.01 in Snow Light Snow
12:15 PM 15.8 °F 2.1 °F 10.4 °F 79% 29.98 in 4.0 mi WSW 12.7 mph - N/A Snow Light Snow
12:35 PM 17.6 °F 6.4 °F 10.4 °F 73% 29.97 in 5.0 mi WSW 9.2 mph - 0.01 in Snow Light Snow
12:55 PM 17.6 °F 5.7 °F 10.4 °F 73% 29.97 in 7.0 mi WSW 10.4 mph - 0.01 in Snow Light Snow
1:15 PM 17.6 °F 7.3 °F 8.6 °F 68% 29.96 in 8.0 mi SW 8.1 mph - N/A Snow Light Snow
1:35 PM 17.6 °F 6.4 °F 10.4 °F 73% 29.96 in 9.0 mi SW 9.2 mph - N/A   Overcast
1:55 PM 17.6 °F 6.4 °F 10.4 °F 73% 29.95 in 9.0 mi WSW 9.2 mph - N/A Snow Light Snow
2:15 PM 17.6 °F 6.4 °F 10.4 °F 73% 29.95 in 4.0 mi SW 9.2 mph - N/A Snow Light Snow
2:35 PM 17.6 °F 7.3 °F 10.4 °F 73% 29.95 in 9.0 mi South 8.1 mph - N/A   Mostly Cloudy
2:55 PM 17.6 °F 7.3 °F 10.4 °F 73% 29.95 in 10.0 mi SW 8.1 mph - N/A   Overcast
3:15 PM 17.6 °F 9.3 °F 10.4 °F 73% 29.94 in 8.0 mi SSW 5.8 mph - N/A   Mostly Cloudy
3:35 PM 19.4 °F 10.4 °F 10.4 °F 68% 29.94 in 10.0 mi SSW 6.9 mph - N/A   Mostly Cloudy
3:55 PM 19.4 °F 10.4 °F 10.4 °F 68% 29.94 in 10.0 mi SSW 6.9 mph - N/A   Overcast
4:15 PM 19.4 °F 10.4 °F 10.4 °F 68% 29.93 in 10.0 mi South 6.9 mph - N/A Snow Light Snow
4:35 PM 19.4 °F 12.8 °F 10.4 °F 68% 29.94 in 10.0 mi SW 4.6 mph - N/A   Overcast
4:55 PM 19.4 °F 11.5 °F 10.4 °F 68% 29.94 in 10.0 mi SSW 5.8 mph - N/A   Overcast
5:15 PM 17.6 °F 12.3 °F 10.4 °F 73% 29.94 in 10.0 mi SSW 3.5 mph - N/A   Mostly Cloudy
5:35 PM 17.6 °F - 10.4 °F 73% 29.93 in 10.0 mi Calm Calm - N/A   Clear
5:55 PM 17.6 °F - 10.4 °F 73% 29.92 in 10.0 mi Calm Calm - N/A   Clear
6:15 PM 17.6 °F - 10.4 °F 73% 29.92 in 10.0 mi Calm Calm - N/A   Clear
6:35 PM 17.6 °F - 10.4 °F 73% 29.91 in 10.0 mi Calm Calm - N/A   Clear
6:55 PM 17.6 °F 12.3 °F 10.4 °F 73% 29.90 in 10.0 mi SE 3.5 mph - N/A   Clear
7:15 PM 17.6 °F 12.3 °F 10.4 °F 73% 29.90 in 10.0 mi ESE 3.5 mph - N/A   Clear
7:35 PM 15.8 °F 10.2 °F 10.4 °F 79% 29.90 in 10.0 mi East 3.5 mph - N/A   Clear
7:55 PM 17.6 °F 12.3 °F 12.2 °F 79% 29.89 in 10.0 mi East 3.5 mph - N/A   Clear
8:15 PM 17.6 °F - 12.2 °F 79% 29.89 in 10.0 mi Calm Calm - N/A   Clear
8:35 PM 17.6 °F - 12.2 °F 79% 29.88 in 10.0 mi Calm Calm - N/A   Clear
8:55 PM 17.6 °F - 14.0 °F 86% 29.87 in 10.0 mi Calm Calm - N/A   Clear
9:15 PM 17.6 °F - 14.0 °F 86% 29.88 in 10.0 mi Calm Calm - N/A   Clear
9:35 PM 19.4 °F - 14.0 °F 80% 29.88 in 10.0 mi Calm Calm - N/A   Scattered Clouds
9:55 PM 19.4 °F 14.3 °F 14.0 °F 80% 29.88 in 1.5 mi South 3.5 mph - 0.01 in Snow Light Snow
10:15 PM 19.4 °F 14.3 °F 17.6 °F 93% 29.87 in 1.5 mi South 3.5 mph - 0.02 in Snow Light Snow
10:35 PM 19.4 °F 12.8 °F 19.4 °F 100% 29.86 in 2.0 mi South 4.6 mph - 0.05 in Snow Light Snow
10:55 PM 19.4 °F 14.3 °F 19.4 °F 100% 29.85 in 1.5 mi South 3.5 mph - 0.07 in Snow Light Snow
11:15 PM 19.4 °F 14.3 °F 19.4 °F 100% 29.84 in 1.5 mi South 3.5 mph - 0.06 in Snow Light Snow
11:35 PM 21.2 °F 16.4 °F 21.2 °F 100% 29.82 in 1.2 mi South 3.5 mph - 0.23 in Snow Light Snow
11:55 PM 21.2 °F 16.4 °F 21.2 °F 100% 29.81 in 1.8 mi South 3.5 mph - 0.33 in Snow Light Snow